[[{"header":{"parameterUnit":"m.s-1","parameterCategory":1,"la1":30.2992,"la2":30.254,"lo1":-89.0895,"lo2":-89.0443,"dy":0.0025,"dx":0.0025,"nx":19,"ny":19,"refTime":"2026-03-09T03:00:00:Z","depth":0,"parameterNumber":2,"parameterNumberName":"U-component_of_WINDS"},"data":[0,0,0,-1.35,-1.35,-1.3484,-1.3483,-1.3473,-1.3473,0,0,0,0,0,0,0,0,0,0,0,-1.351,-1.351,-1.35,-1.3499,-1.3484,-1.3483,-1.3473,-1.3473,0,0,0,0,0,0,0,0,0,0,0,-1.351,-1.351,-1.351,-1.3499,-1.3484,-1.3483,-1.3473,-1.3482,0,0,0,0,0,0,0,0,0,0,-1.3495,-1.3511,-1.351,-1.351,-1.3499,-1.3484,-1.3483,-1.3482,-1.3481,-1.3485,0,-1.3489,0,-1.3481,-1.3473,-1.3473,0,0,0,-1.3495,-1.3511,-1.3502,-1.351,-1.3499,-1.3484,-1.349,-1.3481,-1.348,-1.3484,-1.3489,-1.3488,-1.3481,-1.3473,-1.3473,-1.3507,-1.3508,0,0,-1.3496,-1.351,-1.3502,-1.3502,-1.3504,-1.349,-1.3489,-1.3481,-1.3487,-1.3489,-1.3488,-1.3481,-1.3473,-1.3473,-1.3507,-1.3507,0,0,0,-1.3501,-1.3511,-1.3502,-1.3502,-1.3499,-1.349,-1.3489,-1.3487,-1.3483,-1.3487,-1.348,-1.3473,-1.3473,-1.3507,-1.3507,-1.3539,0,0,0,-1.3502,-1.3514,-1.3502,-1.3511,-1.3499,-1.3493,-1.3496,-1.3484,-1.3482,-1.3481,-1.3473,-1.3473,-1.3506,-1.3507,-1.3537,-1.3551,0,0,0,-1.3509,-1.3515,-1.3515,-1.3512,-1.3505,-1.3493,-1.3488,-1.3483,-1.3478,-1.3473,-1.3473,-1.3506,-1.3507,-1.3535,-1.3548,-1.3564,0,0,0,-1.3521,-1.3543,-1.3516,-1.3537,-1.3506,-1.3513,-1.3488,-1.3492,-1.3491,-1.3473,-1.3506,-1.3507,-1.3535,-1.3546,-1.3562,-1.3579,-1.3587,0,0,-1.3556,-1.3548,-1.3559,-1.3534,-1.355,-1.3514,-1.3534,-1.3519,-1.3506,-1.3508,-1.3508,-1.3537,-1.3548,-1.3563,-1.3631,-1.3638,0,0,0,-1.3575,-1.3584,-1.3585,-1.3585,-1.3575,-1.3567,-1.3548,-1.3543,-1.3544,-1.351,-1.3547,-1.3553,-1.3561,-1.3569,-1.3574,-1.3581,-1.3511,-1.3511,-1.3511,-1.3645,-1.3627,-1.3645,-1.3625,-1.3626,-1.3607,-1.3605,-1.3595,-1.3577,-1.3586,-1.3586,-1.3629,-1.3639,-1.3643,-1.3649,-1.3594,-1.3594,-1.3594,-1.3594,-1.3694,-1.3703,-1.3679,-1.3687,-1.3669,-1.3676,-1.3659,-1.3646,-1.365,-1.3628,-1.3634,-1.3611,-1.3651,-1.3656,-1.3597,-1.3596,-1.3596,-1.3596,-1.3596,-1.3737,-1.3738,-1.3732,-1.373,-1.3732,-1.3711,-1.3717,-1.3699,-1.3683,-1.369,-1.3688,-1.3687,-1.3684,-1.369,-1.3691,-1.3691,-1.3691,-1.3691,-1.3691,-1.3783,-1.3775,-1.3782,-1.3774,-1.3772,-1.3767,-1.3749,-1.3747,-1.374,-1.3727,-1.3727,-1.3708,-1.3658,-1.3646,-1.3693,-1.3693,-1.3693,-1.3692,-1.3692,-1.3838,-1.3823,-1.3833,-1.3831,-1.3821,-1.3823,-1.3802,-1.3799,-1.3795,-1.3798,-1.3778,-1.3745,-1.3734,-1.3729,-1.3719,-1.3782,-1.3782,-1.3782,-1.3782,-1.3874,-1.3867,-1.3874,-1.3872,-1.3868,-1.385,-1.3862,-1.3849,-1.3833,-1.383,-1.3819,-1.3804,-1.38,-1.3791,-1.3785,-1.3775,-1.3851,-1.3851,-1.3851,-1.3907,-1.3899,-1.3912,-1.3896,-1.3887,-1.388,-1.3891,-1.389,-1.3869,-1.3854,-1.3827,-1.3824,-1.3799,-1.3792,-1.3775,-1.3766,-1.3747,0,0]},{"header":{"parameterUnit":"m.s-1","parameterCategory":1,"la1":30.2992,"la2":30.254,"lo1":-89.0895,"lo2":-89.0443,"dy":0.0025,"dx":0.0025,"nx":19,"ny":19,"refTime":"2026-03-09T03:00:00:Z","depth":0,"parameterNumber":3,"parameterNumberName":"V-component_of_WINDS"},"data":[0,0,0,2.9872,2.9869,2.9725,2.9725,2.9535,2.9533,0,0,0,0,0,0,0,0,0,0,0,2.9912,2.9911,2.9872,2.9868,2.9725,2.9725,2.9535,2.9533,0,0,0,0,0,0,0,0,0,0,0,2.9913,2.9911,2.991,2.9868,2.9725,2.9725,2.9536,2.9646,0,0,0,0,0,0,0,0,0,0,2.9786,2.9822,2.9912,2.991,2.9867,2.9726,2.9725,2.9651,2.9639,2.9598,0,2.9564,0,2.9546,2.9521,2.952,0,0,0,2.9869,2.9832,2.9796,2.991,2.9866,2.9726,2.979,2.9644,2.963,2.9582,2.9561,2.9554,2.9543,2.9519,2.9518,2.9292,2.9291,0,0,2.9877,2.9884,2.9805,2.9787,2.9811,2.9795,2.9786,2.9636,2.9612,2.956,2.955,2.954,2.9518,2.9517,2.9293,2.9291,0,0,0,2.9899,2.989,2.9857,2.9794,2.9769,2.979,2.978,2.9619,2.9608,2.9548,2.9537,2.9517,2.9515,2.9294,2.9292,2.925,0,0,0,2.9904,2.9903,2.9861,2.9864,2.9772,2.9692,2.9766,2.9618,2.9601,2.9538,2.9517,2.9513,2.9295,2.9293,2.9253,2.9227,0,0,0,2.9922,2.9905,2.9885,2.9865,2.9804,2.9695,2.9675,2.9614,2.9595,2.952,2.9512,2.9296,2.9293,2.9257,2.9233,2.9173,0,0,0,2.9943,2.9844,2.9884,2.977,2.9805,2.967,2.9676,2.9574,2.9504,2.9516,2.9295,2.9292,2.9258,2.9236,2.9176,2.9124,2.9104,0,0,2.9823,2.983,2.9763,2.9794,2.9655,2.9692,2.9545,2.9471,2.9455,2.9347,2.9341,2.9252,2.9233,2.9173,2.8981,2.8965,0,0,0,2.9728,2.968,2.9641,2.9578,2.9523,2.9473,2.9423,2.9396,2.9305,2.9402,2.9213,2.9201,2.9166,2.9141,2.9127,2.9097,2.9281,2.9281,2.9281,2.9567,2.9557,2.9446,2.9418,2.9357,2.9308,2.9257,2.9213,2.9215,2.9171,2.9139,2.9024,2.8995,2.8984,2.8953,2.911,2.9109,2.9109,2.9109,2.9392,2.9323,2.9335,2.9232,2.922,2.9132,2.9083,2.9088,2.9004,2.9046,2.9014,2.9062,2.8967,2.8939,2.9106,2.9106,2.9107,2.9107,2.9107,2.9287,2.9253,2.9225,2.9137,2.9069,2.9043,2.8965,2.8955,2.8945,2.8914,2.8881,2.8882,2.8883,2.8899,2.8899,2.8898,2.8898,2.8898,2.8897,2.9189,2.916,2.9096,2.9033,2.8994,2.8941,2.8895,2.8855,2.8808,2.8808,2.8808,2.8816,2.896,2.8997,2.8891,2.8892,2.8893,2.8894,2.8894,2.9016,2.9056,2.8957,2.8918,2.8846,2.8781,2.8773,2.8694,2.8659,2.8621,2.8638,2.8745,2.875,2.8761,2.8792,2.8639,2.8639,2.8639,2.8639,2.8929,2.8933,2.8832,2.8772,2.8711,2.8695,2.8584,2.8549,2.8516,2.8495,2.8516,2.8556,2.8567,2.8566,2.8581,2.861,2.8414,2.8414,2.8414,2.8823,2.8822,2.873,2.8703,2.8647,2.8599,2.8496,2.8425,2.8397,2.8404,2.8478,2.8488,2.8552,2.8573,2.8582,2.8606,2.8658,0,0]}]]